TimeCDT,TemperatureF,Dew PointF,Humidity,Sea Level PressureIn,VisibilityMPH,Wind Direction,Wind SpeedMPH,Gust SpeedMPH,PrecipitationIn,Events,Conditions,WindDirDegrees,DateUTC
12:15 AM,63.1,61.7,95,30.08,10.0,Calm,Calm,-,N/A,,Unknown,0,2013-09-20 05:15:00
12:35 AM,63.1,61.7,95,30.08,10.0,Calm,Calm,-,N/A,,Unknown,0,2013-09-20 05:35:00
12:55 AM,63.5,61.7,94,30.09,10.0,Calm,Calm,-,N/A,,Unknown,0,2013-09-20 05:55:00
1:15 AM,63.5,61.9,94,30.09,10.0,East,3.5,-,N/A,,Unknown,80,2013-09-20 06:15:00
1:35 AM,63.5,61.7,94,30.07,10.0,Calm,Calm,-,N/A,,Unknown,0,2013-09-20 06:35:00
1:55 AM,63.5,61.9,94,30.08,10.0,North,5.8,-,N/A,,Unknown,350,2013-09-20 06:55:00
2:15 AM,63.9,62.4,95,30.09,10.0,North,8.1,-,N/A,,Unknown,10,2013-09-20 07:15:00
2:35 AM,63.7,62.4,96,30.09,10.0,NNE,4.6,-,0.01,,Unknown,20,2013-09-20 07:35:00
2:55 AM,63.3,61.5,94,30.09,10.0,NNE,10.4,-,0.01,,Unknown,20,2013-09-20 07:55:00
3:15 AM,63.1,61.2,93,30.09,10.0,NNE,12.7,-,N/A,,Unknown,20,2013-09-20 08:15:00
3:35 AM,62.2,59.9,92,30.08,10.0,NNE,17.3,-,N/A,,Unknown,30,2013-09-20 08:35:00
3:55 AM,61.9,59.9,93,30.08,10.0,NE,13.8,-,N/A,,Unknown,40,2013-09-20 08:55:00
4:15 AM,61.9,59.4,91,30.09,10.0,NNE,9.2,-,N/A,,Unknown,20,2013-09-20 09:15:00
4:35 AM,61.9,59.4,91,30.09,10.0,NNE,10.4,-,N/A,,Unknown,30,2013-09-20 09:35:00
4:55 AM,60.8,57.4,88,30.09,10.0,NNE,15.0,-,N/A,,Unknown,20,2013-09-20 09:55:00
5:15 AM,60.4,56.5,87,30.10,10.0,NNE,15.0,-,0.01,,Unknown,20,2013-09-20 10:15:00
5:35 AM,59.4,55.2,86,30.10,10.0,NNE,15.0,19.6,0.01,,Unknown,20,2013-09-20 10:35:00
5:55 AM,59.0,53.4,82,30.10,10.0,NNE,11.5,-,0.01,,Unknown,30,2013-09-20 10:55:00
6:15 AM,59.0,52.3,79,30.10,10.0,NE,13.8,-,N/A,,Unknown,40,2013-09-20 11:15:00
6:35 AM,59.0,52.3,79,30.10,10.0,NE,10.4,-,N/A,,Unknown,40,2013-09-20 11:35:00
6:55 AM,58.8,52.7,80,30.11,10.0,NNE,11.5,16.1,N/A,,Unknown,30,2013-09-20 11:55:00
7:15 AM,58.1,52.9,83,30.12,10.0,NNE,6.9,-,N/A,,Unknown,20,2013-09-20 12:15:00
7:35 AM,58.1,53.6,85,30.13,10.0,NNE,10.4,-,N/A,,Unknown,20,2013-09-20 12:35:00
7:55 AM,58.1,53.8,86,30.14,10.0,NNE,9.2,-,N/A,,Unknown,20,2013-09-20 12:55:00
8:15 AM,58.1,54.0,86,30.14,10.0,NNE,10.4,-,N/A,,Unknown,30,2013-09-20 13:15:00
8:35 AM,58.1,53.2,84,30.14,10.0,NNE,12.7,-,N/A,,Unknown,30,2013-09-20 13:35:00
8:55 AM,58.3,53.4,84,30.14,10.0,NNE,11.5,-,N/A,,Unknown,30,2013-09-20 13:55:00
9:15 AM,58.3,53.2,83,30.15,10.0,NNE,11.5,-,N/A,,Unknown,20,2013-09-20 14:15:00
9:35 AM,58.6,52.3,80,30.15,10.0,NE,15.0,-,0.01,,Unknown,40,2013-09-20 14:35:00
9:55 AM,59.0,52.2,78,30.15,10.0,NE,16.1,-,0.01,,Unknown,40,2013-09-20 14:55:00
10:15 AM,59.2,51.3,75,30.16,10.0,NE,16.1,-,N/A,,Unknown,40,2013-09-20 15:15:00
10:35 AM,59.4,50.7,73,30.17,10.0,NE,12.7,-,N/A,,Unknown,40,2013-09-20 15:35:00
10:55 AM,59.9,50.4,71,30.17,10.0,NE,15.0,-,N/A,,Unknown,50,2013-09-20 15:55:00
11:15 AM,60.4,50.5,70,30.17,10.0,ENE,15.0,-,N/A,,Unknown,60,2013-09-20 16:15:00
11:35 AM,61.2,50.7,69,30.17,10.0,NE,16.1,-,N/A,,Unknown,50,2013-09-20 16:35:00
11:55 AM,61.2,50.9,69,30.17,10.0,ENE,10.4,-,N/A,,Unknown,60,2013-09-20 16:55:00
12:15 PM,62.1,51.3,68,30.17,10.0,NE,10.4,-,N/A,,Unknown,40,2013-09-20 17:15:00
12:35 PM,62.8,51.3,66,30.16,10.0,NE,10.4,-,N/A,,Unknown,40,2013-09-20 17:35:00
12:55 PM,64.8,51.8,63,30.15,10.0,ENE,8.1,-,N/A,,Unknown,60,2013-09-20 17:55:00
1:15 PM,66.0,51.8,60,30.15,10.0,ENE,11.5,-,N/A,,Unknown,70,2013-09-20 18:15:00
1:35 PM,66.2,52.7,62,30.14,10.0,ENE,8.1,-,N/A,,Unknown,60,2013-09-20 18:35:00
1:55 PM,67.1,52.2,59,30.14,10.0,NE,9.2,-,N/A,,Unknown,50,2013-09-20 18:55:00
2:15 PM,68.0,52.7,58,30.12,10.0,NNE,8.1,-,N/A,,Unknown,20,2013-09-20 19:15:00
2:35 PM,69.4,53.2,56,30.12,10.0,NE,6.9,-,N/A,,Unknown,40,2013-09-20 19:35:00
2:55 PM,69.4,50.2,50,30.12,10.0,NE,6.9,-,N/A,,Unknown,40,2013-09-20 19:55:00
3:15 PM,70.5,48.9,46,30.11,10.0,NE,10.4,-,N/A,,Unknown,50,2013-09-20 20:15:00
3:35 PM,70.5,49.3,47,30.11,10.0,ENE,8.1,-,N/A,,Unknown,60,2013-09-20 20:35:00
3:55 PM,70.3,47.5,44,30.10,10.0,ENE,8.1,-,N/A,,Unknown,60,2013-09-20 20:55:00
4:15 PM,71.8,45.5,39,30.10,10.0,ENE,9.2,-,N/A,,Unknown,60,2013-09-20 21:15:00
4:35 PM,72.0,42.8,35,30.09,10.0,ENE,6.9,-,N/A,,Unknown,60,2013-09-20 21:35:00
4:55 PM,72.0,43.3,36,30.09,10.0,East,9.2,-,N/A,,Unknown,90,2013-09-20 21:55:00
5:15 PM,72.5,44.1,36,30.09,10.0,East,10.4,-,N/A,,Unknown,90,2013-09-20 22:15:00
5:35 PM,72.0,43.2,35,30.09,10.0,East,10.4,-,N/A,,Unknown,80,2013-09-20 22:35:00
5:55 PM,71.8,43.2,36,30.09,10.0,East,9.2,-,N/A,,Unknown,100,2013-09-20 22:55:00
6:15 PM,71.1,42.3,35,30.09,10.0,East,5.8,-,N/A,,Unknown,100,2013-09-20 23:15:00
6:35 PM,70.7,44.6,39,30.09,10.0,East,5.8,-,N/A,,Unknown,90,2013-09-20 23:35:00
6:55 PM,69.6,45.5,42,30.09,10.0,SE,6.9,-,0.01,,Unknown,130,2013-09-20 23:55:00
7:15 PM,68.4,46.6,46,30.09,10.0,ESE,5.8,-,N/A,,Unknown,120,2013-09-21 00:15:00
7:35 PM,66.7,48.4,52,30.09,10.0,SE,4.6,-,N/A,,Unknown,130,2013-09-21 00:35:00
7:55 PM,64.9,50.7,60,30.09,10.0,SE,4.6,-,N/A,,Unknown,130,2013-09-21 00:55:00
8:15 PM,63.3,52.5,68,30.10,10.0,SE,5.8,-,N/A,,Unknown,140,2013-09-21 01:15:00
8:35 PM,61.7,52.7,72,30.10,10.0,SE,5.8,-,N/A,,Unknown,140,2013-09-21 01:35:00
8:55 PM,61.2,51.8,71,30.11,10.0,SE,5.8,-,N/A,,Unknown,130,2013-09-21 01:55:00
9:15 PM,60.3,51.8,74,30.12,10.0,SE,5.8,-,N/A,,Unknown,140,2013-09-21 02:15:00
9:35 PM,59.4,52.0,77,30.12,10.0,SE,5.8,-,N/A,,Unknown,140,2013-09-21 02:35:00
9:55 PM,58.5,52.0,79,30.12,10.0,SE,4.6,-,N/A,,Unknown,140,2013-09-21 02:55:00
10:15 PM,58.1,51.8,80,30.13,10.0,SSE,5.8,-,N/A,,Unknown,150,2013-09-21 03:15:00
10:35 PM,57.4,52.2,83,30.12,10.0,South,5.8,-,N/A,,Unknown,180,2013-09-21 03:35:00
10:55 PM,57.2,52.3,84,30.12,10.0,South,6.9,-,N/A,,Unknown,180,2013-09-21 03:55:00
11:15 PM,56.8,51.4,82,30.12,10.0,South,5.8,-,N/A,,Unknown,190,2013-09-21 04:15:00
11:35 PM,55.9,51.1,84,30.12,10.0,SSW,4.6,-,N/A,,Unknown,200,2013-09-21 04:35:00
11:55 PM,55.4,51.3,86,30.12,10.0,SW,5.8,-,N/A,,Unknown,220,2013-09-21 04:55:00